Погода в Худжанде

Таджикистан     40°17′00″N   69°37′26″E
темп.,
°C
ветер,
м/с
пор.,
м/с
влажн.,
%
обл.,
%
осадки,
мм/ч
давл.,
гПа
погр.,
м
21 июня, пн
пн2123:00+22зюз33260 0.0 101017
02:00+19зсз33300 0.0 101120
05:00+17зсз33310 0.0 101220
08:00+22зсз34210 0.0 1013427
11:00+28зсз44180 0.0 1012971
14:00+31зсз67150 0.0 10101631
17:00+32зсз67140 0.0 10102215
20:00+26зсз44160 0.0 101128
22 июня, вт
вт2223:00+22зюз22180 0.0 101214
02:00+20юз11210 0.0 101111
05:00+19юз11230 0.0 101111
08:00+28зсз23170 0.0 1011356
11:00+32зсз44180 0.0 10102042
14:00+35сз56160 0.0 10092990
17:00+34сз77150 0.0 10082977
20:00+27сз47233 0.0 1009130
23 июня, ср
ср2323:00+23зюз57250 0.0 1010105
02:00+20з33270 0.0 101131
05:00+18зсз33290 0.0 101125
08:00+23з44251 0.0 1012390
11:00+28зсз44170 0.0 10111110
14:00+32зсз55140 0.0 10101555
17:00+33зсз56130 0.0 10091918
20:00+26зсз33190 0.0 101017
24 июня, чт
чт2423:00+23зюз22220 0.0 101015
02:00+21з33250 0.0 100930
05:00+19зсз22290 0.0 101019
08:00+25зсз45220 0.0 1010401
11:00+30зсз55160 0.0 10091153
14:00+33зсз67130 0.0 10081944
17:00+34з68110 0.0 10062824
20:00+28зюз45200 0.0 100771
25 июня, пт
пт2523:00+24зюз22270 0.0 100713
02:00+23з33300 0.0 100731
05:00+21з46390 0.0 100896
08:00+24з56400 0.0 1010534
11:00+29зсз56290 0.0 10081373
14:00+32зсз77220 0.0 10062211
17:00+32зсз88190 0.0 10062068
20:00+26з511160 0.0 1007238